Regional Weather Roundup
Issued by NWS

Home | Current Version | Previous Version | Graphics & Text | Print | Product List | Glossary On
Versions: 1 2 3 4 5 6 7 8 9 10 11 12 13 14 15 16 17 18 19 20 21 22 23 24 25 26 27 28 29 30 31 32 33 34 35 36 37 38 39 40 41 42 43 44 45 46 47 48 49 50
000
ASUS43 KOAX 250602
RWRNE

WEATHER ROUNDUP FOR NEBRASKA
NATIONAL WEATHER SERVICE OMAHA NE
1200 AM CST SAT FEB 25 2017

NOTES: SATELLITE DATA IS BEING USED TO AUGMENT CLOUD COVER ABOVE
       12000 FEET.
       "FAIR" INDICATES FEW OR NO CLOUDS BELOW 12,000 FEET WITH NO
       SIGNIFICANT WEATHER AND/OR OBSTRUCTIONS TO VISIBILITY.

  * THESE STATIONS DO NOT REPORT WEATHER SUCH AS RAIN...SNOW OR FOG.

NEZ001>004-019>022-054>056-250700-
NEBRASKA PANHANDLE

CITY           SKY/WX    TMP DP  RH WIND       PRES   REMARKS
SCOTTSBLUFF    CLOUDY    12   7  80 CALM      30.04S
6HR MIN TEMP:   8; 6HR MAX TEMP:  24;

ALLIANCE       FOG       -2  -4  91 CALM      30.04F VSB 1
6HR MIN TEMP:  -4; 6HR MAX TEMP:  19;

CHADRON        CLOUDY     4   0  83 SW3       30.06F
6HR MIN TEMP:   3; 6HR MAX TEMP:  19;

KIMBALL        CLOUDY     8   6  92 W7        30.01F WCI  -3
SIDNEY         CLOUDY     5   1  83 SW9       30.04F WCI  -9
6HR MIN TEMP:   4; 6HR MAX TEMP:  21;

$$

NEZ057>060-069>072-079>082-250700-
SOUTHWEST NEBRASKA

CITY           SKY/WX    TMP DP  RH WIND       PRES   REMARKS
NORTH PLATTE   CLOUDY    12   7  80 NW8       30.14F WCI   0
6HR MIN TEMP:  12; 6HR MAX TEMP:  23;

IMPERIAL       CLOUDY    15  11  83 W3        30.13S
6HR MIN TEMP:  15; 6HR MAX TEMP:  23;

LEXINGTON      CLOUDY    15  10  77 W12       30.14S WCI   2
MCCOOK         CLOUDY    16  10  77 NW9       30.17S WCI   4
6HR MIN TEMP:  15; 6HR MAX TEMP:  25;

OGALLALA       CLOUDY     8   5  89 W6        30.12S WCI  -2
$$

NEZ005>010-023>029-035>040-094-250700-
NORTH CENTRAL NEBRASKA

CITY           SKY/WX    TMP DP  RH WIND       PRES   REMARKS
VALENTINE      CLOUDY     3  -2  79 SW7       30.11F WCI  -9
6HR MIN TEMP:   0; 6HR MAX TEMP:  20;

AINSWORTH      CLOUDY     8   5  89 W8        30.10S WCI  -5
BROKEN BOW     CLOUDY    14   8  77 W3        30.11S
6HR MIN TEMP:  13; 6HR MAX TEMP:  21;

O`NEILL        CLOUDY    17  11  79 NW8       30.11S WCI   6
ORD            CLEAR     14   8  77 NW9       30.11F WCI   2
6HR MIN TEMP:  12; 6HR MAX TEMP:  23;

THEDFORD       CLOUDY     7   4  89 W3        30.11F
$$

NEZ041-046>049-061>064-073>077-083>087-250700-
SOUTH CENTRAL NEBRASKA

CITY           SKY/WX    TMP DP  RH WIND       PRES   REMARKS
GRAND ISLAND   CLEAR     16  11  80 NW12      30.12S WCI   3
6HR MIN TEMP:  15; 6HR MAX TEMP:  23;

AURORA         CLEAR     18  13  80 NW9       30.11S WCI   7
HASTINGS       CLEAR     16  10  77 NW10      30.13S WCI   4
6HR MIN TEMP:  16; 6HR MAX TEMP:  24;

HEBRON         CLEAR     20  15  79 NW9G17    30.12F WCI  10
HOLDREGE       CLOUDY    14   9  81 NW8       30.13S WCI   3
KEARNEY *      CLOUDY    16   9  73 NW8       30.13S WCI   5
$$

NEZ011>018-030>034-042>045-250700-
NORTHEAST NEBRASKA

CITY           SKY/WX    TMP DP  RH WIND       PRES   REMARKS
NORFOLK        CLEAR     20  12  71 NW13      30.09R WCI   7
6HR MIN TEMP:  20; 6HR MAX TEMP:  25;

ALBION         CLOUDY    21  11  64 NW8       30.11R WCI  12
BLAIR          PTCLDY    21  16  79 NW13      30.04R WCI   9
FREMONT        CLEAR     21  16  81 NW13      30.08R WCI   9
TEKAMAH        CLEAR     21  13  71 N15       30.07R WCI   8
6HR MIN TEMP:  20; 6HR MAX TEMP:  24;

WAYNE          CLEAR     20  15  79 NW20      30.07S WCI   5
$$

NEZ050>053-065>068-078-088>093-250700-
SOUTHEAST NEBRASKA

CITY           SKY/WX    TMP DP  RH WIND       PRES   REMARKS
LINCOLN        CLEAR     25  17  72 NW13      30.11R WCI  14
6HR MIN TEMP:  25; 6HR MAX TEMP:  27;

OMAHA EPPLEY   PTCLDY    24  15  68 NW18      30.05R WCI  10
6HR MIN TEMP:  23; 6HR MAX TEMP:  26;

BEATRICE       CLEAR     24  17  75 NW14      30.09S WCI  12
FALLS CITY     CLOUDY    24  18  77 NW13      30.07R WCI  12
6HR MIN TEMP:  24; 6HR MAX TEMP:  26; 6HR PCP: TRACE;

NEBRASKA CITY  CLEAR     23  16  74 NW13G18   30.06R WCI  11
PLATTSMOUTH    CLEAR     24  14  65 NW14      30.05R WCI  12
$$

NEZ044-045-051>053-067-250700-
OMAHA AREA

CITY           SKY/WX    TMP DP  RH WIND       PRES   REMARKS
OMAHA EPPLEY   PTCLDY    24  15  68 NW18      30.05R WCI  10
6HR MIN TEMP:  23; 6HR MAX TEMP:  26;

BLAIR          PTCLDY    21  16  79 NW13      30.04R WCI   9
FREMONT        CLEAR     21  16  81 NW13      30.08R WCI   9
MILLARD        CLEAR     27  18  70 NW12      30.07R WCI  16
PLATTSMOUTH    CLEAR     24  14  65 NW14      30.05R WCI  12
WAHOO          FAIR      23  16  74 NW14      30.08R WCI  11
$$



USA.gov is the U.S. government's official web portal to all federal, state and local government web resources and services.